Kozani Airport, Greece

10:32 AM EEST on September 26, 2016 (GMT +0300)
Filippos

Weather History for LGKZ - November, 2013

Change the Weather History Date:

Wednesday, November 6, 2013

  Actual Average Record
Temperature  
Mean Temperature 57 °F -  
Max Temperature 64 °F - - ()
Min Temperature 50 °F - - ()
Degree Days  
Heating Degree Days 8    
Growing Degree Days 7 (Base 50)    
Moisture  
Dew Point 48 °F    
Average Humidity 71    
Maximum Humidity 87    
Minimum Humidity 52    
Precipitation  
Precipitation 0.00 in - - ()
Sea Level Pressure  
Sea Level Pressure 29.66 in    
Wind  
Wind Speed 3 mph ()    
Max Wind Speed 8 mph    
Max Gust Speed -    
Visibility 6.2 miles    
Events Rain    
T = Trace of Precipitation, MM = Missing Value Source: Averaged Metar Reports

Daily Weather History Graph

Daily Weather History Graph

Search for Another Location

Airport or City:

Trip Planner

Search our weather history database for the weather conditions in past years. The results will help you decide how hot, cold, wet, or windy it might be!

Date:

Astronomy

Nov. 06, 2013 Rise Set
Actual Time 7:07 AM EET 5:24 PM EET
Civil Twilight 6:39 AM EET 5:52 PM EET
Nautical Twilight 6:06 AM EET 6:24 PM EET
Astronomical Twilight 5:35 AM EET 6:56 PM EET
Moon 10:05 AM EET (11/6) 8:08 PM EET (11/6)
Length of Visible Light 11h 13m
Length of Day
10h 16m
Waxing Crescent, 11% of the Moon is Illuminated
Nov 6
Waxing Crescent
Nov 10
First Quarter
Nov 17
Full
Nov 25
Last Quarter
Dec 3
New

Hourly Weather History & Observations

Time (EET) Temp. Dew Point Humidity Pressure Visibility Wind Dir Wind Speed Gust Speed Precip Events Conditions
12:20 AM 57.2 °F 46.4 °F 67% 29.65 in - SSW 4.6 mph - N/A   Unknown
12:50 AM 57.2 °F 46.4 °F 67% 29.65 in - South 5.8 mph - N/A   Unknown
1:20 AM 55.4 °F 46.4 °F 72% 29.65 in - SSW 4.6 mph - N/A   Unknown
1:50 AM 53.6 °F 46.4 °F 77% 29.65 in - Variable 2.3 mph - N/A   Unknown
2:20 AM 53.6 °F 46.4 °F 77% 29.62 in - Variable 3.5 mph - N/A   Unknown
2:50 AM 55.4 °F 46.4 °F 72% 29.62 in - Variable 1.2 mph - N/A   Unknown
3:20 AM 57.2 °F 48.2 °F 72% 29.62 in - Variable 2.3 mph - N/A   Unknown
3:50 AM 57.2 °F 48.2 °F 72% 29.62 in - Variable 3.5 mph - N/A   Unknown
4:20 AM 57.2 °F 48.2 °F 72% 29.62 in - South 6.9 mph - N/A   Unknown
4:50 AM 55.4 °F 48.2 °F 77% 29.62 in - Variable 2.3 mph - N/A   Unknown
5:20 AM 55.4 °F 48.2 °F 77% 29.59 in - Variable 2.3 mph - N/A   Unknown
5:50 AM 55.4 °F 46.4 °F 72% 29.59 in - Variable 3.5 mph - N/A   Unknown
6:20 AM 53.6 °F 46.4 °F 77% 29.62 in - Variable 2.3 mph - N/A   Unknown
6:50 AM 50.0 °F 46.4 °F 87% 29.62 in 6.2 mi Calm Calm - N/A   Scattered Clouds
7:50 AM 50.0 °F 46.4 °F 87% 29.62 in 6.2 mi North 4.6 mph - N/A   Scattered Clouds
8:50 AM 55.4 °F 46.4 °F 72% 29.62 in 6.2 mi Calm Calm - N/A   Scattered Clouds
9:50 AM 59.0 °F 48.2 °F 67% 29.62 in 6.2 mi Calm Calm - N/A   Scattered Clouds
10:50 AM 62.6 °F 46.4 °F 55% 29.62 in 6.2 mi Calm Calm - N/A   Scattered Clouds
11:50 AM 64.4 °F 46.4 °F 52% 29.62 in 6.2 mi Calm Calm - N/A   Mostly Cloudy
12:50 PM 62.6 °F 48.2 °F 59% 29.62 in 6.2 mi South 6.9 mph - N/A   Mostly Cloudy
1:50 PM 62.6 °F 46.4 °F 55% 29.62 in 6.2 mi Calm Calm - N/A   Mostly Cloudy
2:50 PM 62.6 °F 48.2 °F 59% 29.62 in 6.2 mi Calm Calm - N/A   Mostly Cloudy
3:50 PM 62.6 °F 48.2 °F 59% 29.65 in 6.2 mi Calm Calm - N/A   Mostly Cloudy
4:50 PM 60.8 °F 48.2 °F 63% 29.65 in 6.2 mi Calm Calm - N/A   Mostly Cloudy
5:50 PM 59.0 °F 48.2 °F 67% 29.68 in 6.2 mi Calm Calm - N/A   Mostly Cloudy
6:50 PM 57.2 °F 48.2 °F 72% 29.68 in 6.2 mi Calm Calm - N/A   Mostly Cloudy
7:50 PM 57.2 °F 48.2 °F 72% 29.71 in 6.2 mi Calm Calm - N/A   Mostly Cloudy
8:20 PM 57.2 °F 48.2 °F 72% 29.71 in - Variable 1.2 mph - N/A   Unknown
8:50 PM 57.2 °F 48.2 °F 72% 29.74 in - Variable 3.5 mph - N/A   Unknown
9:20 PM 57.2 °F 48.2 °F 72% 29.74 in - Variable 2.3 mph - N/A   Unknown
9:50 PM 57.2 °F 48.2 °F 72% 29.77 in - NNW 6.9 mph - N/A   Unknown
10:20 PM 57.2 °F 50.0 °F 77% 29.77 in - NE 5.8 mph - N/A   Unknown
10:50 PM 55.4 °F 50.0 °F 82% 29.77 in - Variable 2.3 mph - N/A   Unknown
11:20 PM 57.2 °F 50.0 °F 77% 29.80 in - NW 5.8 mph - N/A   Unknown
11:50 PM 57.2 °F 50.0 °F 77% 29.80 in - NW 8.1 mph - N/A Rain Light Rain